Odessa, TX

2:56 PM CDT on August 21, 2017 (GMT -0500)
Odessa-Schlemeyer

Weather History for KODO - April, 2014

Change the Weather History Date:

Monday, April 7, 2014

  Actual Average (KMAF) Record (KMAF)
Temperature  
Mean Temperature 56 °F -  
Max Temperature 69 °F 73 °F 93 °F (1989)
Min Temperature 44 °F 45 °F 23 °F (1939)
Degree Days  
Heating Degree Days 9    
Growing Degree Days 6 (Base 50)    
Moisture  
Dew Point 34 °F    
Average Humidity 47    
Maximum Humidity 74    
Minimum Humidity 22    
Precipitation  
Precipitation 0.02 in - - ()
Sea Level Pressure  
Sea Level Pressure 29.94 in    
Wind  
Wind Speed 11 mph (NNW)    
Max Wind Speed 37 mph    
Max Gust Speed 50 mph    
Visibility 9 miles    
Events Rain    
Averages and records for this station are not official NWS values.
T = Trace of Precipitation, MM = Missing Value Source: NWS Daily Summary

Daily Weather History Graph

Daily Weather History Graph

Search for Another Location

Airport or City:

Trip Planner

Search our weather history database for the weather conditions in past years. The results will help you decide how hot, cold, wet, or windy it might be!

Date:

Astronomy

Apr. 07, 2014 Rise Set
Actual Time 7:30 AM CDT 8:13 PM CDT
Civil Twilight 7:05 AM CDT 8:38 PM CDT
Nautical Twilight 6:36 AM CDT 9:07 PM CDT
Astronomical Twilight 6:06 AM CDT 9:37 PM CDT
Moon 1:37 PM CDT (4/7) 2:42 AM CDT (4/7)
Length of Visible Light 13h 32m
Length of Day
12h 42m
First Quarter, 53% of the Moon is Illuminated
Apr 7
First Quarter
Apr 15
Full
Apr 22
Last Quarter
Apr 29
New
May 6
First Quarter

Hourly Weather History & Observations

Time (CDT) Temp. Windchill Dew Point Humidity Pressure Visibility Wind Dir Wind Speed Gust Speed Precip Events Conditions
12:53 AM 48.9 °F - 37.0 °F 64% 29.78 in 10.0 mi SE 3.5 mph - N/A   Clear
1:53 AM 46.9 °F - 37.0 °F 68% 29.79 in 10.0 mi SW 3.5 mph - N/A   Mostly Cloudy
2:53 AM 48.0 °F - 37.0 °F 66% 29.79 in 10.0 mi NW 4.6 mph - N/A   Clear
3:53 AM 45.0 °F 41.8 °F 32.0 °F 60% 29.80 in 10.0 mi NW 5.8 mph - N/A   Clear
4:53 AM 44.1 °F 40.1 °F 36.0 °F 73% 29.81 in 10.0 mi NW 6.9 mph - N/A   Clear
5:53 AM 45.0 °F 40.6 °F 37.0 °F 74% 29.83 in 10.0 mi NW 8.1 mph - N/A   Mostly Cloudy
6:53 AM 46.9 °F - 36.0 °F 66% 29.84 in 10.0 mi NNW 10.4 mph - 0.00 in   Scattered Clouds
7:53 AM 46.9 °F - 36.0 °F 66% 29.87 in 10.0 mi NNW 11.5 mph - N/A   Clear
8:53 AM 51.1 °F - 37.9 °F 61% 29.89 in 10.0 mi North 10.4 mph - N/A   Clear
9:53 AM 55.9 °F - 37.9 °F 51% 29.90 in 10.0 mi North 23.0 mph - N/A   Clear
10:53 AM 60.1 °F - 37.0 °F 42% 29.92 in 10.0 mi North 24.2 mph 31.1 mph N/A   Clear
11:53 AM 63.0 °F - 35.1 °F 35% 29.94 in 10.0 mi NNW 25.3 mph 32.2 mph N/A   Partly Cloudy
12:53 PM 63.0 °F - 35.1 °F 35% 29.96 in 10.0 mi NNE 18.4 mph - N/A   Clear
1:53 PM 64.9 °F - 30.0 °F 27% 29.96 in 10.0 mi North 21.9 mph 32.2 mph N/A   Mostly Cloudy
3:53 PM 68.0 °F - 28.0 °F 22% 29.94 in 9.0 mi NNW 13.8 mph 20.7 mph N/A   Scattered Clouds
4:21 PM 62.1 °F - 30.0 °F 30% 30.02 in 1.5 mi NNW 36.8 mph 49.5 mph N/A   Haze
4:33 PM 57.0 °F - 39.0 °F 51% 30.04 in 4.0 mi North 13.8 mph 40.3 mph 0.02 in Rain Light Rain
4:53 PM 64.0 °F - 42.1 °F 45% 29.98 in 10.0 mi North 18.4 mph 25.3 mph 0.02 in   Scattered Clouds
5:53 PM 64.0 °F - 30.0 °F 28% 30.00 in 10.0 mi North 19.6 mph 28.8 mph N/A   Clear
6:53 PM 63.0 °F - 30.0 °F 29% 30.01 in 10.0 mi NW 10.4 mph - N/A   Clear
7:53 PM 62.1 °F - 28.9 °F 29% 30.04 in 10.0 mi North 15.0 mph - N/A   Clear
8:53 PM 57.9 °F - 28.9 °F 33% 30.05 in 10.0 mi NNW 6.9 mph - N/A   Clear
9:53 PM 54.0 °F - 28.9 °F 38% 30.09 in 10.0 mi North 9.2 mph - N/A   Clear
10:53 PM 53.1 °F - 28.9 °F 40% 30.10 in 10.0 mi NNE 11.5 mph - N/A   Clear
11:53 PM 51.1 °F - 30.0 °F 44% 30.11 in 10.0 mi NNE 11.5 mph - N/A   Clear